Sidney, NE

4:15 PM MDT on May 24, 2017 (GMT -0600)
Sidney Municipal

Weather History for KSNY - November, 2011

Change the Weather History Date:

Sunday, November 13, 2011

  Actual Average Record
Temperature  
Mean Temperature 45 °F 39 °F  
Max Temperature 53 °F 53 °F 78 °F (1989)
Min Temperature 36 °F 25 °F -14 °F (2014)
Degree Days  
Heating Degree Days 20 26  
Month to date heating degree days 339 304  
Since 1 July heating degree days 900 907  
Cooling Degree Days 0 0  
Month to date cooling degree days 0 0  
Year to date cooling degree days 960 830  
Moisture  
Dew Point 21 °F    
Average Humidity 44    
Maximum Humidity 64    
Minimum Humidity 23    
Precipitation  
Precipitation T in 0.02 in 0.23 in (1993)
Month to date precipitation 0.51 0.24  
Year to date precipitation 27.51 17.67  
Sea Level Pressure  
Sea Level Pressure 29.53 in    
Wind  
Wind Speed 16 mph (West)    
Max Wind Speed 46 mph    
Max Gust Speed 52 mph    
Visibility 10 miles    
Events Rain    
T = Trace of Precipitation, MM = Missing Value Source: NWS Daily Summary

Daily Weather History Graph

Daily Weather History Graph

Search for Another Location

Airport or City:

Trip Planner

Search our weather history database for the weather conditions in past years. The results will help you decide how hot, cold, wet, or windy it might be!

Date:

Astronomy

Nov. 13, 2011 Rise Set
Actual Time 6:37 AM MST 4:34 PM MST
Civil Twilight 6:07 AM MST 5:04 PM MST
Nautical Twilight 5:34 AM MST 5:37 PM MST
Astronomical Twilight 5:01 AM MST 6:09 PM MST
Moon 6:44 PM MST (11/13) 9:12 AM MST (11/13)
Length of Visible Light 10h 56m
Length of Day
9h 57m
Waning Gibbous, 92% of the Moon is Illuminated
Nov 13
Waning Gibbous
Nov 18
Last Quarter
Nov 24
New
Dec 2
First Quarter
Dec 10
Full

Hourly Weather History & Observations

Time (MST) Temp. Windchill Dew Point Humidity Pressure Visibility Wind Dir Wind Speed Gust Speed Precip Events Conditions
12:53 AM 39.0 °F 27.4 °F 8.1 °F 28% 29.44 in 10.0 mi WNW 28.8 mph 42.6 mph N/A   Clear
1:53 AM 41.0 °F 28.8 °F 6.1 °F 24% 29.42 in 10.0 mi NW 36.8 mph 44.9 mph N/A   Clear
2:53 AM 39.9 °F 29.0 °F 8.1 °F 27% 29.42 in 10.0 mi NNW 26.5 mph 36.8 mph N/A   Clear
3:53 AM 39.9 °F 29.7 °F 9.0 °F 28% 29.43 in 10.0 mi NNW 23.0 mph 33.4 mph N/A   Clear
4:53 AM 39.9 °F 31.1 °F 10.0 °F 29% 29.47 in 10.0 mi NNW 17.3 mph - N/A   Clear
5:53 AM 41.0 °F 32.5 °F 16.0 °F 36% 29.46 in 10.0 mi NNW 17.3 mph - N/A   Clear
6:53 AM 37.0 °F 34.5 °F 17.1 °F 44% 29.50 in 10.0 mi West 3.5 mph - N/A   Mostly Cloudy
7:53 AM 41.0 °F 35.8 °F 23.0 °F 49% 29.54 in 10.0 mi West 8.1 mph - N/A   Mostly Cloudy
8:53 AM 43.0 °F 37.2 °F 23.0 °F 45% 29.55 in 10.0 mi WSW 10.4 mph - N/A   Mostly Cloudy
9:53 AM 48.0 °F - 25.0 °F 41% 29.55 in 10.0 mi WNW 23.0 mph 33.4 mph N/A   Partly Cloudy
10:53 AM 48.9 °F - 26.1 °F 41% 29.54 in 10.0 mi WNW 27.6 mph 34.5 mph N/A   Overcast
11:53 AM 50.0 °F - 27.0 °F 41% 29.54 in 10.0 mi WNW 18.4 mph 27.6 mph N/A   Mostly Cloudy
12:53 PM 51.1 °F - 28.0 °F 41% 29.53 in 10.0 mi West 18.4 mph - N/A   Mostly Cloudy
1:53 PM 53.1 °F - 28.0 °F 38% 29.49 in 10.0 mi WNW 11.5 mph - N/A   Clear
2:53 PM 50.0 °F - 27.0 °F 41% 29.50 in 10.0 mi SW 10.4 mph - N/A   Scattered Clouds
3:53 PM 48.0 °F - 27.0 °F 44% 29.53 in 10.0 mi SSW 10.4 mph - 0.00 in Rain Light Rain
4:53 PM 45.0 °F 39.7 °F 28.9 °F 53% 29.54 in 10.0 mi South 10.4 mph - 0.00 in   Overcast
5:53 PM 44.1 °F 41.5 °F 27.0 °F 51% 29.57 in 10.0 mi South 4.6 mph - 0.00 in   Overcast
6:53 PM 39.9 °F 36.7 °F 28.0 °F 63% 29.60 in 10.0 mi WSW 4.6 mph - N/A   Overcast
7:53 PM 44.1 °F 40.1 °F 27.0 °F 51% 29.60 in 10.0 mi NW 6.9 mph - N/A   Overcast
8:53 PM 46.0 °F 39.3 °F 24.1 °F 42% 29.60 in 10.0 mi West 16.1 mph 23.0 mph 0.00 in   Overcast
9:53 PM 39.0 °F 30.6 °F 21.9 °F 50% 29.62 in 10.0 mi West 15.0 mph - N/A   Clear
10:53 PM 36.0 °F 27.5 °F 21.9 °F 57% 29.63 in 10.0 mi West 12.7 mph - N/A   Clear
11:53 PM 36.0 °F 27.1 °F 21.0 °F 55% 29.64 in 10.0 mi West 13.8 mph - N/A   Clear